TimeCDT,TemperatureF,Dew PointF,Humidity,Sea Level PressureIn,VisibilityMPH,Wind Direction,Wind SpeedMPH,Gust SpeedMPH,PrecipitationIn,Events,Conditions,WindDirDegrees,DateUTC
12:08 AM,41.0,25.2,53,-9999,-9999.0,SW,10.4,-,N/A,,Unknown,220,2012-10-08 05:08:00
12:28 AM,39.9,26.1,58,-9999,-9999.0,SW,8.1,-,N/A,,Unknown,230,2012-10-08 05:28:00
12:48 AM,39.0,26.1,60,-9999,-9999.0,WSW,9.2,-,N/A,,Unknown,240,2012-10-08 05:48:00
1:08 AM,39.0,26.1,60,-9999,-9999.0,WSW,9.2,-,N/A,,Unknown,240,2012-10-08 06:08:00
1:28 AM,39.0,26.1,60,-9999,-9999.0,WSW,8.1,-,N/A,,Unknown,240,2012-10-08 06:28:00
1:48 AM,39.0,26.1,60,-9999,-9999.0,WSW,9.2,-,N/A,,Unknown,240,2012-10-08 06:48:00
2:08 AM,39.0,25.2,58,-9999,-9999.0,SW,11.5,-,N/A,,Unknown,230,2012-10-08 07:08:00
2:28 AM,39.9,25.2,56,-9999,-9999.0,SW,12.7,-,N/A,,Unknown,230,2012-10-08 07:28:00
2:48 AM,39.9,26.1,58,-9999,-9999.0,SW,11.5,-,N/A,,Unknown,230,2012-10-08 07:48:00
3:08 AM,39.9,26.1,58,-9999,-9999.0,SW,10.4,-,N/A,,Unknown,230,2012-10-08 08:08:00
3:28 AM,39.9,26.1,58,-9999,-9999.0,WSW,9.2,-,N/A,,Unknown,240,2012-10-08 08:28:00
3:48 AM,41.0,26.1,55,-9999,-9999.0,WSW,10.4,-,N/A,,Unknown,240,2012-10-08 08:48:00
4:08 AM,41.0,26.1,55,-9999,-9999.0,WSW,9.2,-,N/A,,Unknown,250,2012-10-08 09:08:00
4:28 AM,41.0,26.1,55,-9999,-9999.0,WSW,9.2,-,N/A,,Unknown,240,2012-10-08 09:28:00
4:48 AM,41.0,27.1,58,-9999,-9999.0,WSW,9.2,-,N/A,,Unknown,240,2012-10-08 09:48:00
5:08 AM,39.9,26.1,58,-9999,-9999.0,WSW,8.1,-,N/A,,Unknown,240,2012-10-08 10:08:00
5:28 AM,39.9,26.1,58,-9999,-9999.0,WSW,8.1,-,N/A,,Unknown,240,2012-10-08 10:28:00
5:48 AM,39.9,26.1,58,-9999,-9999.0,WSW,8.1,-,N/A,,Unknown,240,2012-10-08 10:48:00
6:08 AM,39.9,27.1,60,-9999,-9999.0,WSW,8.1,-,N/A,,Unknown,250,2012-10-08 11:08:00
6:28 AM,39.9,27.1,60,-9999,-9999.0,WSW,6.9,-,N/A,,Unknown,240,2012-10-08 11:28:00
6:48 AM,39.0,26.1,60,-9999,-9999.0,SW,5.8,-,N/A,,Unknown,220,2012-10-08 11:48:00
7:08 AM,39.0,26.1,60,-9999,-9999.0,SW,8.1,-,N/A,,Unknown,230,2012-10-08 12:08:00
7:28 AM,39.0,26.1,60,-9999,-9999.0,SW,8.1,-,N/A,,Unknown,230,2012-10-08 12:28:00
7:48 AM,37.9,27.1,65,-9999,-9999.0,SW,6.9,-,N/A,,Unknown,230,2012-10-08 12:48:00
8:08 AM,39.0,26.1,60,-9999,-9999.0,SW,8.1,-,N/A,,Unknown,230,2012-10-08 13:08:00
8:28 AM,39.9,26.1,58,-9999,-9999.0,SW,9.2,-,N/A,,Unknown,220,2012-10-08 13:28:00
8:48 AM,42.1,28.0,58,-9999,-9999.0,SW,8.1,-,N/A,,Unknown,230,2012-10-08 13:48:00
9:08 AM,43.0,29.1,58,-9999,-9999.0,WSW,5.8,-,N/A,,Unknown,240,2012-10-08 14:08:00
9:28 AM,46.0,30.0,54,-9999,-9999.0,WSW,8.1,-,N/A,,Unknown,240,2012-10-08 14:28:00
9:48 AM,48.9,30.0,48,-9999,-9999.0,SW,6.9,-,N/A,,Unknown,230,2012-10-08 14:48:00
10:08 AM,51.1,31.1,46,-9999,-9999.0,WSW,10.4,-,N/A,,Unknown,240,2012-10-08 15:08:00
10:28 AM,51.1,31.1,46,-9999,-9999.0,SW,8.1,-,N/A,,Unknown,220,2012-10-08 15:28:00
10:48 AM,53.1,32.2,45,-9999,-9999.0,SW,9.2,-,N/A,,Unknown,230,2012-10-08 15:48:00
11:08 AM,54.0,31.1,42,-9999,-9999.0,SSW,8.1,-,N/A,,Unknown,210,2012-10-08 16:08:00
11:28 AM,55.0,32.2,42,-9999,-9999.0,SSW,6.9,-,N/A,,Unknown,200,2012-10-08 16:28:00
11:48 AM,57.9,32.2,38,-9999,-9999.0,SW,8.1,-,N/A,,Unknown,220,2012-10-08 16:48:00
12:08 PM,60.1,33.1,36,-9999,-9999.0,SSW,6.9,-,N/A,,Unknown,210,2012-10-08 17:08:00
12:28 PM,62.1,35.1,37,-9999,-9999.0,WSW,8.1,-,N/A,,Unknown,240,2012-10-08 17:28:00
12:48 PM,63.0,33.1,33,-9999,-9999.0,SSW,9.2,-,N/A,,Unknown,200,2012-10-08 17:48:00
1:08 PM,64.0,35.1,34,-9999,-9999.0,SSW,5.8,-,N/A,,Unknown,210,2012-10-08 18:08:00
1:28 PM,64.0,34.2,33,-9999,-9999.0,SSW,5.8,-,N/A,,Unknown,210,2012-10-08 18:28:00
1:48 PM,64.9,34.2,32,-9999,-9999.0,SSW,8.1,-,N/A,,Unknown,210,2012-10-08 18:48:00
2:08 PM,66.0,35.1,32,-9999,-9999.0,SSW,4.6,-,N/A,,Unknown,200,2012-10-08 19:08:00
2:28 PM,66.9,34.2,30,-9999,-9999.0,SW,8.1,-,N/A,,Unknown,220,2012-10-08 19:28:00
2:48 PM,66.9,34.2,30,-9999,-9999.0,SW,5.8,-,N/A,,Unknown,220,2012-10-08 19:48:00
3:08 PM,66.9,34.2,30,-9999,-9999.0,SW,3.5,-,N/A,,Unknown,230,2012-10-08 20:08:00
3:28 PM,68.0,32.2,26,-9999,-9999.0,SSW,5.8,-,N/A,,Unknown,210,2012-10-08 20:28:00
3:48 PM,68.0,33.1,27,-9999,-9999.0,South,8.1,-,N/A,,Unknown,180,2012-10-08 20:48:00
4:08 PM,68.0,33.1,27,-9999,-9999.0,South,5.8,-,N/A,,Unknown,180,2012-10-08 21:08:00
4:28 PM,68.0,32.2,26,-9999,-9999.0,South,8.1,-,N/A,,Unknown,170,2012-10-08 21:28:00
4:48 PM,68.0,32.2,26,-9999,-9999.0,SW,5.8,-,N/A,,Unknown,220,2012-10-08 21:48:00
5:08 PM,69.1,32.2,25,-9999,-9999.0,South,6.9,-,N/A,,Unknown,190,2012-10-08 22:08:00
5:28 PM,70.0,34.2,27,-9999,-9999.0,South,8.1,-,N/A,,Unknown,170,2012-10-08 22:28:00
5:49 PM,69.1,34.2,28,-9999,-9999.0,South,9.2,-,N/A,,Unknown,180,2012-10-08 22:49:00
6:08 PM,66.0,35.1,32,-9999,-9999.0,South,6.9,-,N/A,,Unknown,170,2012-10-08 23:08:00
6:28 PM,64.9,34.2,32,-9999,-9999.0,SSE,5.8,-,N/A,,Unknown,160,2012-10-08 23:28:00
6:48 PM,63.0,34.2,34,-9999,-9999.0,SSE,5.8,-,N/A,,Unknown,160,2012-10-08 23:48:00
7:08 PM,61.0,33.1,35,-9999,-9999.0,South,8.1,-,N/A,,Unknown,170,2012-10-09 00:08:00
7:28 PM,57.9,33.1,39,-9999,-9999.0,South,5.8,-,N/A,,Unknown,170,2012-10-09 00:28:00
7:48 PM,55.0,32.2,42,-9999,-9999.0,South,6.9,-,N/A,,Unknown,170,2012-10-09 00:48:00
8:08 PM,55.9,31.1,39,-9999,-9999.0,South,9.2,-,N/A,,Unknown,190,2012-10-09 01:08:00
8:28 PM,55.9,32.2,41,-9999,-9999.0,South,9.2,-,N/A,,Unknown,180,2012-10-09 01:28:00
8:48 PM,54.0,32.2,44,-9999,-9999.0,South,8.1,-,N/A,,Unknown,180,2012-10-09 01:48:00
9:08 PM,53.1,32.2,45,-9999,-9999.0,South,8.1,-,N/A,,Unknown,180,2012-10-09 02:08:00
9:28 PM,52.0,32.2,47,-9999,-9999.0,South,9.2,-,N/A,,Unknown,180,2012-10-09 02:28:00
9:48 PM,53.1,32.2,45,-9999,-9999.0,South,9.2,-,N/A,,Unknown,180,2012-10-09 02:48:00
10:08 PM,52.0,31.1,45,-9999,-9999.0,South,10.4,-,N/A,,Unknown,180,2012-10-09 03:08:00
10:28 PM,53.1,32.2,45,-9999,-9999.0,South,13.8,-,N/A,,Unknown,180,2012-10-09 03:28:00
10:48 PM,53.1,33.1,47,-9999,-9999.0,South,12.7,-,N/A,,Unknown,180,2012-10-09 03:48:00
11:08 PM,52.0,33.1,49,-9999,-9999.0,South,12.7,-,N/A,,Unknown,180,2012-10-09 04:08:00
11:28 PM,52.0,34.2,51,-9999,-9999.0,South,12.7,-,N/A,,Unknown,180,2012-10-09 04:28:00
11:48 PM,51.1,34.2,52,-9999,-9999.0,South,10.4,-,N/A,,Unknown,180,2012-10-09 04:48:00